Location: Ariel
(45.9570°N, 122.5700°W)
Time: 09:42:03
(UTC-07:00)

Transit 4A - Pass Details

Date: 25 July 2019
Orbit: 863 x 981 km, 66.8° (Epoch: 22 August)

Event Time Altitude Azimuth Distance (km) Brightness Sun altitude
Rises 12:23:27 0° 310° (NW) 3,648 10.7 61.4°
Reaches altitude 10° 12:27:40 10° 284° (WNW) 2,671 10.2 61.7°
Maximum altitude 12:30:10 13° 260° (W) 2,462 10.2 61.9°
Drops below altitude 10° 12:32:38 10° 236° (SW) 2,630 10.5 62.1°
Sets 12:36:44 0° 209° (SSW) 3,537 11.2 62.4°
